Location: Street
(51.1247°N, 2.7429°W)
Time: 02:12:29
(UTC+00:00)

deb Explorer IX - Pass Details

Date: 13 December 2020
Orbit: 536 x 1104 km, 38.8° (Epoch: 20 January)

Event Time Altitude Azimuth Distance (km) Brightness Sun altitude
Rises 16:17:38 0° 263° (W) 3,883 ? -2.6°
Reaches altitude 10° 16:22:37 10° 234° (SW) 2,844 ? -3.2°
Maximum altitude 16:24:51 12° 215° (SW) 2,666 ? -3.5°
Drops below altitude 10° 16:27:02 10° 196° (SSW) 2,737 ? -3.8°
Sets 16:31:35 0° 166° (SSE) 3,541 ? -4.4°
